Temperature
-5 -5 -4 -4 -4 -4 -4 -4 -4 -4 -3 -2 -2 -1 -0 0 1 2 2 3 3 3 4 4 5 5 5 5 6 6 6 6 6 6 7 7 7 7 7 7 7 7 6
-6 -6 -6 -6 -5 -5 -5 -5 -5 -4 -4 -3 -2 -2 -1 -0 -0 0 1 1 2 2 2 3 3 3 4 4 4 5 5 5 5 6 6 6 6 6 6 6 6 6 6
-7 -7 -7 -7 -7 -6 -6 -6 -5 -5 -4 -4 -3 -3 -2 -1 -1 -0 -0 0 1 1 1 2 2 2 2 2 3 4 4 4 5 5 5 5 5 6 6 6 6 6 6
-8 -8 -8 -8 -8 -7 -7 -6 -6 -6 -5 -5 -4 -4 -3 -2 -2 -2 -1 -1 -0 -0 0 0 0 0 0 1 2 2 3 3 3 4 4 5 5 5 5 5 5 5 5
-9 -9 -9 -9 -8 -8 -7 -7 -7 -6 -6 -6 -5 -5 -4 -4 -3 -3 -2 -2 -2 -1 -1 -1 -1 -1 -0 -0 0 1 1 2 2 3 3 3 4 4 4 4 4 4 4
-10 -9 -9 -9 -9 -9 -8 -8 -8 -7 -7 -7 -6 -6 -5 -5 -5 -4 -4 -4 -3 -3 -3 -2 -2 -2 -2 -2 -1 -1 -0 0 1 1 2 2 3 3 3 4 4 3 3
-10 -10 -10 -10 -9 -9 -9 -9 -9 -8 -8 -8 -8 -7 -7 -6 -6 -6 -5 -5 -5 -5 -5 -4 -4 -4 -4 -3 -3 -3 -2 -2 -1 -0 0 1 1 2 2 2 3 3 2
-10 -10 -10 -10 -10 -10 -10 -10 -9 -9 -9 -9 -8 -8 -8 -8 -7 -7 -7 -6 -6 -6 -6 -6 -6 -6 -5 -5 -5 -4 -4 -4 -3 -2 -2 -1 -1 -0 0 1 1 1 0
-11 -11 -11 -11 -11 -11 -10 -10 -10 -10 -9 -9 -9 -9 -9 -9 -8 -7 -7 -7 -7 -7 -7 -7 -7 -7 -7 -6 -6 -6 -6 -5 -5 -5 -4 -4 -3 -3 -2 -1 -1 -1 -1
-12 -12 -12 -12 -12 -12 -11 -11 -11 -11 -10 -10 -9 -9 -9 -9 -8 -8 -8 -8 -8 -8 -8 -8 -8 -8 -8 -8 -7 -7 -7 -6 -6 -6 -6 -6 -5 -5 -4 -4 -3 -3 -3
-12 -12 -12 -13 -13 -13 -12 -12 -11 -11 -11 -11 -10 -10 -9 -9 -9 -8 -8 -8 -8 -8 -8 -8 -8 -9 -9 -9 -8 -8 -8 -7 -7 -7 -7 -7 -7 -6 -6 -6 -5 -5 -5
-13 -13 -13 -13 -13 -13 -13 -13 -12 -12 -12 -11 -11 -11 -10 -10 -10 -9 -9 -9 -9 -9 -9 -9 -9 -9 -9 -9 -9 -9 -9 -8 -8 -8 -8 -8 -8 -7 -7 -7 -7 -6 -6
-13 -14 -14 -14 -14 -14 -14 -14 -13 -13 -12 -12 -12 -12 -12 -11 -11 -10 -10 -10 -10 -10 -10 -10 -10 -10 -10 -9 -10 -10 -9 -9 -9 -9 -9 -9 -9 -8 -8 -8 -7 -7 -7
-14 -14 -14 -15 -14 -14 -14 -14 -14 -14 -13 -13 -13 -12 -12 -12 -12 -11 -11 -11 -11 -10 -10 -10 -10 -10 -10 -10 -10 -10 -10 -10 -10 -10 -10 -10 -10 -9 -9 -9 -8 -8 -8
-14 -14 -15 -15 -15 -15 -15 -15 -15 -14 -14 -13 -14 -13 -13 -12 -12 -12 -11 -11 -11 -11 -11 -11 -11 -11 -11 -11 -11 -11 -11 -11 -11 -11 -11 -11 -11 -11 -10 -10 -10 -9 -9
-14 -15 -15 -15 -15 -15 -15 -15 -15 -15 -14 -14 -14 -14 -14 -13 -13 -12 -12 -12 -12 -11 -11 -12 -12 -12 -12 -12 -12 -12 -12 -12 -13 -13 -13 -12 -12 -12 -12 -11 -11 -11 -10
-14 -14 -15 -15 -15 -15 -15 -15 -15 -15 -15 -15 -15 -14 -14 -14 -13 -13 -13 -13 -13 -13 -13 -13 -13 -13 -13 -13 -13 -13 -14 -14 -14 -14 -14 -14 -13 -13 -13 -13 -12 -12 -12
-14 -14 -15 -14 -15 -15 -15 -15 -15 -15 -15 -15 -15 -15 -15 -14 -14 -14 -14 -14 -14 -14 -14 -14 -14 -14 -14 -14 -14 -14 -14 -14 -14 -14 -14 -14 -14 -14 -14 -14 -14 -13 -13
-14 -14 -14 -14 -14 -14 -15 -15 -15 -15 -15 -15 -15 -15 -15 -15 -15 -15 -15 -15 -15 -15 -15 -15 -15 -15 -15 -15 -15 -15 -15 -15 -15 -15 -15 -15 -15 -15 -15 -15 -14 -14 -14
-13 -14 -14 -14 -14 -14 -15 -15 -15 -15 -15 -15 -15 -15 -15 -15 -15 -15 -15 -15 -15 -15 -15 -15 -15 -15 -15 -15 -15 -15 -15 -15 -15 -15 -15 -15 -15 -15 -15 -15 -15 -15 -15
-13 -13 -14 -14 -14 -15 -15 -15 -15 -15 -15 -15 -15 -15 -15 -15 -15 -15 -15 -15 -15 -15 -15 -16 -16 -16 -16 -16 -16 -16 -16 -16 -16 -16 -16 -16 -16 -16 -16 -15 -15 -15 -15
-13 -13 -14 -14 -15 -15 -15 -15 -15 -16 -16 -16 -16 -15 -15 -15 -15 -15 -15 -15 -15 -15 -15 -16 -16 -16 -16 -16 -16 -16 -16 -16 -16 -16 -16 -16 -16 -16 -16 -15 -15 -15 -15
-13 -13 -13 -14 -15 -15 -15 -15 -16 -16 -16 -16 -16 -16 -15 -15 -15 -15 -15 -15 -15 -15 -15 -15 -16 -16 -16 -16 -16 -16 -16 -16 -16 -16 -16 -16 -16 -15 -15 -15 -15 -15 -14
-11 -12 -13 -13 -14 -15 -15 -15 -15 -15 -15 -15 -16 -16 -15 -15 -15 -15 -15 -15 -15 -15 -15 -15 -16 -16 -16 -16 -16 -16 -16 -16 -16 -15 -15 -15 -15 -15 -15 -15 -14 -14 -14
-11 -12 -13 -13 -14 -15 -15 -15 -15 -15 -15 -15 -15 -15 -15 -15 -15 -15 -15 -15 -15 -15 -15 -15 -15 -15 -15 -15 -15 -15 -15 -15 -15 -15 -15 -14 -14 -14 -14 -14 -14 -14 -14
-11 -12 -12 -13 -14 -14 -14 -15 -15 -15 -15 -15 -15 -15 -15 -15 -15 -15 -15 -15 -15 -15 -15 -15 -15 -15 -15 -15 -15 -15 -15 -15 -14 -14 -14 -14 -14 -14 -14 -14 -14 -14 -14
Wind_Speed
18 17 16 16 16 16 15 16 16 16 17 17 16 14 12 10 8 5 3 1 1 2 2 3 3 2 1 1 1 2 4 4 5 5 3 2 5 6 5 7 11 12 11
18 18 17 17 16 16 16 16 16 16 17 17 16 15 13 11 8 5 4 2 2 2 1 2 3 3 3 2 1 1 2 3 5 6 4 3 4 5 6 6 5 8 9
18 17 16 16 16 16 16 16 16 16 16 16 16 15 14 12 9 7 4 3 2 2 3 4 3 3 2 2 2 2 1 1 3 4 4 3 2 2 4 4 4 3 6
17 16 16 15 15 16 16 16 15 15 14 15 15 15 15 12 11 9 8 7 6 6 6 6 5 3 3 3 3 3 2 2 1 3 3 3 2 2 5 5 4 3 3
16 15 14 14 14 14 15 15 14 14 13 13 13 14 15 13 11 11 10 9 9 9 9 9 9 10 7 5 5 4 4 3 2 1 2 2 2 3 4 4 4 4 4
15 15 14 14 13 13 14 14 14 13 12 11 11 12 13 12 18 18 13 10 10 9 9 9 9 11 13 14 13 11 9 5 3 2 1 2 2 2 2 3 4 4 3
14 15 15 14 14 13 14 14 13 12 11 10 10 9 10 13 19 17 14 8 6 6 6 6 6 7 9 8 10 12 12 13 11 5 4 4 3 3 2 3 3 3 3
13 14 15 14 14 13 13 13 12 10 10 9 8 8 7 11 16 15 11 6 4 3 4 5 6 7 7 7 6 7 9 9 9 7 5 4 4 4 4 3 3 4 4
14 15 15 15 14 13 13 13 10 9 9 10 10 9 8 9 15 13 9 5 5 4 4 5 6 6 10 10 7 7 8 7 10 11 10 9 7 6 4 3 3 3 3
14 14 14 14 14 12 13 12 10 9 9 10 11 11 11 10 15 14 9 5 5 4 4 5 7 7 9 9 6 5 6 5 5 7 9 12 12 13 13 7 3 3 2
14 14 14 13 13 11 11 10 11 10 9 9 9 9 10 13 16 19 14 4 3 3 3 3 4 8 8 7 6 4 6 6 5 7 7 8 8 8 8 8 7 5 3
13 14 13 12 12 13 11 10 10 10 9 8 7 7 7 9 14 16 20 15 8 3 1 1 2 6 7 7 5 7 10 9 6 6 7 7 7 6 6 6 8 7 6
13 13 12 11 11 12 11 9 9 9 9 9 6 6 6 7 9 16 18 17 14 5 2 3 1 5 7 5 8 11 9 6 6 6 6 6 5 5 5 5 6 7 6
12 12 11 8 10 10 10 10 9 9 10 10 9 9 7 7 7 7 6 7 9 6 4 4 6 5 5 6 8 7 6 6 6 5 4 4 4 5 5 5 4 5 3
11 11 11 10 8 8 9 9 11 8 12 11 8 8 9 7 10 14 10 6 4 3 0 2 2 3 4 4 5 5 5 5 5 4 4 4 4 4 4 4 3 3 2
11 11 10 8 8 8 7 8 13 15 18 18 17 14 11 14 16 17 17 15 11 8 5 4 4 4 3 3 3 3 3 4 3 3 3 3 3 3 3 3 3 2 3
11 12 10 10 9 9 9 8 9 11 15 16 17 17 15 16 16 15 14 15 14 12 7 5 4 3 2 1 1 1 1 2 2 2 2 1 1 2 2 3 3 3 3
11 14 13 9 8 8 8 8 8 9 8 8 11 15 15 15 14 13 13 10 8 8 5 4 4 3 1 0 1 1 1 2 1 1 1 0 1 1 2 2 3 4 5
13 11 11 10 9 9 9 9 9 9 8 8 7 9 13 12 10 10 9 5 4 4 4 4 4 3 3 2 1 1 1 2 2 2 2 2 2 2 3 3 3 7 6
13 21 20 14 11 11 11 11 10 9 9 8 8 7 7 6 2 2 2 1 1 2 3 3 3 3 2 2 2 2 2 3 3 3 3 3 3 3 4 5 5 4 5
13 16 23 17 12 12 11 11 10 10 9 9 8 10 12 4 3 3 2 2 2 3 3 3 3 3 3 3 3 3 4 4 4 4 4 4 4 4 5 5 6 6 6
13 14 13 13 13 12 12 11 10 10 10 11 9 10 13 5 3 4 3 3 3 3 3 3 3 4 4 4 4 4 4 5 5 5 5 5 5 5 6 6 6 6 6
13 14 14 14 13 17 15 11 11 10 10 10 9 9 8 6 5 5 4 4 4 3 3 3 4 4 5 6 7 5 5 6 6 6 6 6 6 7 7 8 9 9 9
13 14 15 14 14 13 13 13 12 11 10 9 9 8 7 6 5 5 4 4 4 4 4 4 4 5 7 7 9 10 11 12 12 11 10 10 10 9 9 9 10 11 10
13 14 15 15 15 15 14 14 12 11 10 9 8 7 6 5 5 4 4 4 4 4 5 5 6 7 9 10 11 13 15 18 19 16 14 11 13 13 12 12 11 11 11
14 15 15 15 15 15 15 14 13 11 8 6 5 4 4 4 4 3 3 3 3 4 4 5 7 9 11 12 15 18 21 22 23 23 16 8 10 11 11 11 12 12 12
Wind_Direction
353 351 351 349 346 342 341 339 337 334 331 329 327 323 320 316 312 305 287 300 28 27 43 57 39 23 3 320 162 164 173 163 188 229 228 208 174 176 169 176 166 153 158
350 349 350 348 344 342 341 339 339 339 337 336 335 333 329 323 318 308 294 273 197 173 109 79 46 41 32 8 39 140 171 181 181 207 220 191 188 186 169 163 155 153 148
348 348 348 347 343 341 340 340 342 345 347 350 349 347 345 342 341 345 350 8 47 90 101 101 86 89 81 59 60 67 95 168 176 190 211 192 175 156 141 129 123 115 123
346 345 345 343 341 340 341 343 345 348 352 355 356 354 351 354 3 10 23 31 42 51 58 66 70 90 112 105 81 56 54 82 141 180 194 183 165 150 146 145 130 107 91
341 341 338 337 339 341 342 344 347 349 352 355 357 359 357 358 14 25 26 33 40 44 44 42 42 46 63 75 82 61 52 52 58 144 175 162 153 149 162 150 141 123 71
340 338 336 337 339 342 344 346 346 346 346 350 354 358 358 358 10 29 36 33 38 41 40 35 37 38 35 37 46 51 52 53 41 39 51 127 105 91 108 131 135 140 135
340 339 339 340 341 341 345 346 343 340 339 339 342 350 353 347 358 12 28 32 36 45 49 44 41 39 45 33 33 42 44 50 54 52 45 43 56 31 69 88 88 94 110
341 342 342 342 341 341 345 344 340 337 337 333 330 332 335 342 349 355 12 19 24 53 66 65 54 36 52 50 50 60 57 50 56 60 70 62 63 53 57 81 93 95 80
344 343 342 343 341 343 346 343 339 339 343 343 343 340 335 337 349 3 28 19 33 48 71 78 67 38 45 53 58 66 60 44 49 63 71 71 75 95 105 94 99 105 106
342 339 339 341 340 341 343 340 339 338 345 351 357 2 3 352 355 8 35 36 31 35 48 50 59 48 39 58 57 63 69 52 46 64 70 66 60 59 61 56 59 93 104
338 337 338 340 338 341 338 337 340 342 343 346 351 358 2 1 358 358 15 33 39 50 62 40 24 35 33 50 60 41 71 79 64 78 77 67 60 53 46 42 41 49 69
337 337 336 338 344 347 338 337 339 341 340 332 336 346 349 350 350 349 359 10 30 41 42 360 358 37 43 53 54 60 70 72 68 74 71 61 53 46 39 39 44 47 50
337 335 332 341 343 343 340 338 339 342 341 337 336 339 340 341 340 347 352 355 3 15 328 305 11 55 57 40 58 73 69 64 67 71 69 59 47 40 37 31 27 25 28
335 333 332 339 341 339 343 346 343 343 343 354 357 347 334 330 326 327 332 338 345 353 358 7 28 49 70 72 71 65 58 71 77 72 66 50 39 42 39 25 16 10 16
332 332 332 337 329 331 339 340 342 336 345 354 350 345 342 334 338 351 355 338 324 297 24 60 47 50 76 81 77 72 66 66 71 67 57 47 41 37 27 14 6 5 358
334 333 330 330 330 330 323 329 337 341 344 349 347 346 343 346 354 3 6 8 11 34 64 60 60 63 71 75 78 77 73 80 81 78 66 49 38 22 8 354 353 347 325
321 323 320 324 322 323 325 325 323 327 335 341 344 344 344 348 356 3 14 20 27 45 50 45 43 46 60 80 98 110 111 105 106 92 85 60 20 5 353 345 341 328 311
312 313 314 302 300 302 305 307 308 310 314 317 329 335 340 347 356 3 13 24 24 33 32 28 19 11 6 354 184 174 166 159 153 151 156 201 293 307 311 313 312 304 305
311 305 301 295 291 294 298 298 296 297 297 299 302 314 329 339 354 5 20 26 20 22 21 18 11 4 359 348 316 250 215 220 219 212 224 237 245 254 270 280 283 299 305
306 305 309 303 299 301 299 295 292 289 288 288 287 288 297 304 307 329 352 353 6 345 340 338 335 334 334 323 305 288 270 260 251 241 243 244 243 243 254 262 262 266 266
303 303 307 307 303 300 296 290 285 280 278 280 277 281 287 262 230 247 259 255 267 285 292 294 296 300 296 285 272 267 262 259 252 245 245 244 239 241 245 249 254 258 262
305 307 310 312 312 310 305 298 291 284 281 280 278 281 287 273 230 236 245 251 255 259 264 268 271 269 264 260 256 253 253 253 251 245 244 244 241 243 246 249 252 254 257
321 323 323 320 317 316 316 307 298 290 283 277 273 272 270 259 242 236 236 244 250 257 263 263 268 270 267 262 256 243 244 248 246 240 240 246 245 246 245 247 251 255 257
333 328 325 323 322 319 314 309 303 294 286 278 270 264 259 250 243 240 236 239 243 248 258 263 265 268 274 275 269 263 258 259 256 249 239 243 247 251 248 247 249 250 251
334 332 330 327 326 323 320 315 308 299 289 279 269 259 253 245 235 235 234 236 243 250 256 264 269 276 280 281 280 278 281 284 279 266 246 240 244 244 246 246 248 249 247
336 335 334 332 333 334 335 333 327 319 304 288 275 258 246 241 233 228 228 231 246 257 261 268 273 278 283 286 287 291 294 294 291 289 281 253 241 242 242 246 245 246 247
Height
1482 1477 1471 1465 1459 1454 1449 1443 1438 1432 1427 1423 1419 1415 1412 1410 1408 1407 1406 1407 1408 1410 1412 1414 1417 1419 1422 1424 1426 1428 1430 1432 1434 1438 1441 1443 1446 1448 1451 1454 1457 1459 1461
1481 1475 1470 1464 1458 1452 1447 1442 1437 1431 1426 1421 1417 1413 1409 1407 1404 1403 1402 1402 1402 1404 1407 1409 1411 1414 1417 1419 1421 1423 1425 1427 1430 1433 1436 1439 1441 1444 1447 1450 1452 1455 1457
1480 1474 1468 1462 1457 1451 1446 1441 1436 1431 1426 1421 1416 1412 1408 1405 1402 1400 1398 1398 1399 1400 1401 1403 1406 1408 1411 1414 1416 1418 1420 1422 1424 1427 1430 1434 1436 1439 1442 1445 1447 1450 1452
1479 1473 1468 1462 1456 1450 1445 1440 1436 1431 1426 1421 1416 1412 1408 1404 1401 1398 1396 1396 1396 1396 1398 1399 1401 1404 1406 1409 1410 1412 1414 1416 1418 1421 1425 1428 1430 1433 1436 1438 1441 1445 1447
1479 1473 1467 1462 1456 1450 1445 1440 1435 1431 1426 1422 1417 1413 1409 1405 1402 1398 1396 1395 1395 1395 1396 1397 1399 1400 1402 1404 1405 1406 1408 1410 1413 1415 1418 1421 1424 1427 1429 1432 1436 1438 1441
1478 1473 1467 1461 1455 1450 1444 1440 1435 1431 1426 1422 1418 1414 1410 1407 1404 1401 1397 1396 1395 1395 1395 1396 1397 1398 1399 1400 1401 1402 1404 1405 1407 1410 1413 1416 1418 1421 1424 1427 1430 1432 1434
1478 1473 1467 1461 1456 1450 1445 1440 1435 1430 1426 1422 1418 1414 1411 1407 1405 1402 1400 1398 1397 1396 1396 1396 1397 1397 1398 1398 1399 1400 1401 1401 1404 1406 1408 1410 1412 1415 1418 1420 1423 1426 1428
1478 1472 1467 1461 1456 1451 1445 1440 1435 1431 1426 1422 1418 1415 1411 1408 1405 1403 1401 1399 1398 1397 1397 1397 1398 1398 1398 1397 1398 1398 1399 1400 1401 1403 1405 1406 1408 1410 1412 1415 1416 1420 1422
1477 1472 1466 1461 1456 1450 1445 1440 1435 1431 1426 1422 1419 1415 1412 1409 1406 1404 1401 1399 1398 1398 1398 1398 1398 1398 1398 1397 1397 1398 1398 1399 1400 1401 1402 1403 1404 1406 1408 1411 1413 1416 1418
1476 1471 1466 1461 1455 1450 1445 1440 1435 1431 1427 1423 1419 1416 1413 1410 1408 1405 1402 1400 1399 1399 1399 1399 1399 1399 1398 1396 1396 1397 1397 1398 1399 1400 1401 1402 1403 1405 1406 1408 1410 1413 1414
1476 1470 1465 1459 1454 1449 1444 1439 1435 1430 1426 1423 1419 1416 1413 1411 1408 1406 1404 1402 1400 1400 1400 1400 1400 1399 1398 1397 1396 1396 1397 1397 1398 1399 1400 1401 1403 1404 1405 1407 1409 1410 1412
1475 1469 1464 1459 1453 1448 1443 1438 1434 1430 1426 1422 1418 1415 1413 1411 1408 1406 1404 1402 1401 1400 1400 1400 1399 1399 1398 1397 1397 1397 1396 1397 1398 1399 1400 1401 1402 1403 1405 1406 1407 1408 1409
1473 1468 1463 1458 1453 1447 1442 1437 1433 1429 1426 1422 1418 1415 1412 1410 1407 1405 1403 1402 1400 1400 1399 1399 1399 1398 1397 1397 1397 1397 1397 1397 1398 1398 1399 1400 1401 1402 1404 1405 1406 1406 1407
1472 1467 1462 1457 1452 1447 1442 1438 1434 1430 1426 1422 1419 1416 1412 1410 1407 1405 1403 1401 1399 1398 1398 1397 1397 1397 1397 1397 1397 1397 1397 1397 1397 1398 1399 1399 1400 1401 1402 1402 1404 1404 1405
1471 1466 1461 1457 1451 1446 1442 1438 1434 1430 1427 1423 1419 1416 1413 1410 1407 1405 1402 1400 1398 1397 1396 1395 1396 1396 1396 1397 1397 1397 1397 1397 1397 1397 1398 1398 1399 1399 1400 1400 1401 1402 1402
1470 1465 1460 1455 1450 1445 1440 1436 1432 1430 1426 1422 1419 1416 1412 1410 1406 1403 1400 1398 1396 1394 1394 1394 1394 1395 1396 1396 1396 1396 1396 1396 1396 1396 1396 1397 1397 1397 1397 1398 1398 1398 1398
1469 1464 1458 1453 1448 1443 1438 1434 1429 1426 1423 1420 1416 1413 1411 1408 1405 1402 1400 1397 1396 1394 1393 1393 1394 1395 1395 1395 1395 1395 1395 1395 1395 1395 1395 1395 1395 1395 1395 1395 1395 1395 1395
1467 1461 1456 1450 1445 1440 1435 1431 1427 1423 1419 1416 1414 1411 1409 1406 1404 1402 1399 1397 1395 1394 1394 1393 1394 1394 1394 1394 1394 1394 1393 1393 1393 1393 1393 1392 1392 1392 1392 1391 1391 1391 1390
1463 1457 1451 1446 1441 1436 1431 1426 1422 1419 1416 1413 1410 1408 1407 1404 1403 1401 1398 1397 1395 1394 1393 1393 1392 1392 1392 1392 1391 1391 1391 1391 1391 1390 1390 1390 1389 1389 1388 1388 1388 1387 1387
1458 1452 1447 1440 1435 1429 1424 1420 1416 1413 1410 1408 1406 1404 1403 1402 1400 1399 1397 1396 1394 1393 1392 1391 1390 1390 1389 1388 1388 1388 1388 1387 1387 1387 1386 1386 1386 1385 1385 1384 1383 1383 1382
1452 1445 1439 1434 1428 1422 1417 1412 1409 1406 1404 1402 1400 1399 1399 1399 1398 1397 1396 1395 1393 1392 1390 1389 1388 1387 1386 1385 1384 1384 1383 1383 1383 1382 1382 1381 1381 1381 1380 1379 1379 1378 1377
1448 1441 1434 1428 1422 1416 1411 1407 1403 1400 1397 1395 1394 1394 1394 1395 1395 1395 1394 1393 1392 1391 1389 1388 1386 1384 1383 1382 1381 1380 1379 1378 1378 1377 1377 1376 1376 1375 1375 1374 1373 1372 1371
1445 1438 1430 1423 1417 1411 1405 1400 1396 1393 1391 1389 1388 1388 1388 1389 1390 1391 1391 1391 1390 1389 1388 1386 1384 1382 1381 1379 1378 1377 1375 1374 1374 1373 1372 1371 1370 1370 1369 1368 1367 1366 1366
1443 1435 1428 1420 1413 1407 1401 1395 1391 1387 1384 1383 1382 1382 1383 1384 1386 1387 1388 1388 1388 1387 1386 1384 1382 1380 1378 1377 1375 1374 1372 1371 1369 1368 1367 1366 1365 1364 1363 1362 1361 1360 1359
1443 1434 1427 1419 1411 1404 1397 1391 1385 1381 1378 1377 1376 1377 1378 1379 1381 1383 1384 1385 1385 1385 1384 1382 1380 1378 1376 1374 1373 1371 1369 1367 1365 1363 1361 1359 1358 1356 1355 1354 1353 1353 1352
1443 1435 1427 1419 1411 1403 1395 1388 1382 1377 1374 1372 1372 1373 1375 1376 1378 1380 1381 1382 1383 1382 1381 1380 1378 1376 1374 1372 1370 1367 1365 1362 1359 1357 1355 1352 1350 1348 1347 1346 1345 1344 1344